Regional Weather Roundup
Issued by NWS

Home | Current Version | Previous Version | Graphics & Text | Print | Product List | Glossary On
Versions: 1 2 3 4 5 6 7 8 9 10 11 12 13 14 15 16 17 18 19 20 21 22 23 24 25 26 27 28 29 30 31 32 33 34 35 36 37 38 39 40 41 42 43 44 45 46 47 48 49 50
512
ASUS44 KJAN 170910
RWRMS

MISSISSIPPI HOURLY WEATHER ROUNDUP
NATIONAL WEATHER SERVICE JACKSON MS
400 AM CDT WED SEP 17 2014

NOTE: "FAIR: INDICATES FEW OR NO CLOUDS BELOW 12,000 FEET WITH NO
SIGNIFICANT WEATHER AND/OR OBSTRUCTIONS TO VISIBILITY.

MSZ001>002-007>008-010>013-018>021-025>028-034>036-171000-
NORTHWEST MISSISSIPPI

CITY           SKY/WX    TMP DP  RH WIND       PRES   REMARKS
CLARKSDALE       N/A     66  66 100 CALM      30.02S
CLEVELAND      FAIR      68  68 100 NE5       29.99F
GREENWOOD      CLEAR     69  67  93 N3        29.98F
GREENVILLE     CLEAR     69  67  93 NE5       29.98F
GRENADA        FAIR      66  63  88 N3        30.00F
OLIVE BRANCH   CLEAR     61  61 100 NE5       30.03S
OXFORD         FAIR      63  61  94 NE5       30.03F
TUNICA         SUNNY     63  61  94 N6        30.02F
$$

MSZ003>006-009-014>017-022>024-029>033-037>039-171000-
NORTHEAST MISSISSIPPI

CITY           SKY/WX    TMP DP  RH WIND       PRES   REMARKS
COLUMBUS AFB   CLEAR     67  67  99 N5        29.99F
CORINTH          N/A     61  59  94 CALM      30.02S
GOLDN TRIANGLE PTCLDY    68  63  83 N5        30.00S
STARKVILLE     FAIR      66  64  94 N3        29.99F
TUPELO         CLEAR     64  62  93 NE6       30.01S
$$

MSZ040-058-171000-
CENTRAL MISSISSIPPI

CITY           SKY/WX    TMP DP  RH WIND       PRES   REMARKS
JACKSON INTL   CLEAR     70  68  93 CALM      29.96F
JACKSON HAWKNS CLEAR     72  69  90 NW3       29.97F
MERIDIAN KEY   CLEAR     69  68  96 CALM      29.96F
MERIDIAN NAS   CLEAR     70  67  90 NW5       29.97F
RAYMOND        HAZE      68  64  88 CALM      29.97S VSB 1/2
VICKSBURG      MOCLDY    70  68  93 N3        29.96F
$$

MSZ059>079-171000-
SOUTH MISSISSIPPI

CITY           SKY/WX    TMP DP  RH WIND       PRES   REMARKS
BROOKHAVEN     FAIR      70  70 100 CALM      29.99S FOG
HATTIESBURG    MOCLDY    69  68  96 CALM      29.96F
MCCOMB         MOCLDY    71  70  96 NW3       29.96F FOG
NATCHEZ        MOCLDY    72  70  94 CALM      29.98S
PINE BELT      CLOUDY   N/A N/A N/A CALM      29.96F VSB 3/4
$$

MSZ080>082-171000-
COASTAL MISSISSIPPI

CITY           SKY/WX    TMP DP  RH WIND       PRES   REMARKS
BILOXI         CLOUDY    73  71  93 N2        29.95S
PASCAGOULA     CLOUDY    72  71  97 CALM      29.95S
GULFPORT       CLOUDY    72  71  97 CALM      29.94F
$$



USA.gov is the U.S. government's official web portal to all federal, state and local government web resources and services.